Location: Altleiningen
(49.5078°N, 8.0741°E)
Time: 05:41:40
(UTC+00:00)

GP-B - Pass Details

Date: 14 June 2025
Orbit: 619 x 624 km, 89.8° (Epoch: 12 July)

Event Time Altitude Azimuth Distance (km) Brightness Sun altitude
Rises 21:14:19 0° 5° (N) 2,914 7.5 -11.3°
Reaches altitude 10° 21:16:35 10° 10° (N) 2,002 6.4 -11.5°
Maximum altitude 21:20:54 54° 88° (E) 756 3.3 -11.9°
Enters shadow 21:24:03 18° 162° (SSE) 1,548 4.5 -12.1°
